This is the latest recevied weather packets stored in our database for station/object W1SCW. If no packets are shown the sender has not sent any weather packets the latest 10 day(s).
| Time | Temp. | Humidity | Pressure | Rain* | Wind** | Luminosity | Snow |
|---|---|---|---|---|---|---|---|
| 1788572776 | 26.11° C | 82% | 1011.2 hPa | 0 mm | - | 0 W/m² | - |
| 1788572471 | 26.11° C | 82% | 1011.2 hPa | 0 mm | - | 0 W/m² | - |
| 1788572168 | 26.11° C | 86% | 1011.3 hPa | 0 mm | - | 0 W/m² | - |
| 1788571863 | 26.11° C | 86% | 1011.2 hPa | 0 mm | - | 0 W/m² | - |
| 1788571563 | 26.11° C | 86% | 1011.1 hPa | 0 mm | - | 0 W/m² | - |
| 1788571260 | 26.11° C | 86% | 1011.1 hPa | 0 mm | - | 0 W/m² | - |
| 1788570955 | 26.67° C | 80% | 1011.3 hPa | 0 mm | - | 0 W/m² | - |
| 1788570650 | 26.67° C | 80% | 1011.2 hPa | 0 mm | - | 0 W/m² | - |
| 1788570350 | 26.67° C | 80% | 1011 hPa | 0 mm | - | 0 W/m² | - |
| 1788570047 | 26.67° C | 80% | 1011.4 hPa | 0 mm | - | 0 W/m² | - |
| 1788569742 | 29.44° C | 66% | 1011.2 hPa | 0 mm | - | 10 W/m² | - |
| 1788569437 | 29.44° C | 66% | 1011.2 hPa | 0 mm | - | 10 W/m² | - |
| 1788569133 | 29.44° C | 66% | 1011.1 hPa | 0 mm | - | 10 W/m² | - |
| 1788568854 | 31.67° C | 61% | 1011.3 hPa | 0 mm | - | 41 W/m² | - |
| 1788568524 | 31.67° C | 61% | 1011 hPa | 0 mm | - | 41 W/m² | - |
| 1788568219 | 31.67° C | 61% | 1011.1 hPa | 0 mm | - | 41 W/m² | - |
| 1788567913 | 31.67° C | 61% | 1010.7 hPa | 0 mm | - | 54 W/m² | - |
| 1788567609 | 31.67° C | 61% | 1010.7 hPa | 0 mm | - | 65 W/m² | - |
| 1788567303 | 31.67° C | 61% | 1010.5 hPa | 0 mm | - | 71 W/m² | - |
| 1788566997 | 33.33° C | 57% | 1010.5 hPa | 0 mm | - | 79 W/m² | - |
| 1788566693 | 33.33° C | 57% | 1010.3 hPa | 0 mm | - | 79 W/m² | - |
| 1788566388 | 33.33° C | 57% | 1010.5 hPa | 0 mm | - | 79 W/m² | - |
| 1788566084 | 33.33° C | 57% | 1010.5 hPa | 0 mm | - | 79 W/m² | - |
| 1788565778 | 33.33° C | 57% | 1010.6 hPa | 0 mm | - | 79 W/m² | - |
| 1788565478 | - | - | - | 0 mm | - | - | - |
* Rain latest hour (hover to see other rain measurements)
** Current wind speed in m/s (hover to see current wind gust speed)